Showing default

HAWK-7A, 56191

Orbit data source: Space-Track

HAWK-7A, 56191 is a payload satellite owned by HawkEye 360 (US) in SSO that was launched on Sat, 15 Apr 2023 UTC via an FALCON 9 launch vehicle from the Air Force Western Test Range (AFWTR). Payload-class satellites include a variety of spacecraft equipped with specific instruments for various scientific and technological missions. These include communications satellites like Starlink; space stations such as the ISS; scientific satellites like the Hubble; Earth observation satellites from companies like Planet Labs, Umbra, and HawkEye 360; GPS; miniature CubeSats for education and research; and military/defense satellites.

Loading next visibility...
Identifier
56191, 2023-054P
Orbit
SSO
Country
Flag of USUS
Related business
Manufacturer
UTIAS-SFL
Mission
Operational Commercial Sigint
Bus & Motor
HAWK2G, Unknown motor
Mass
31 kg wet, 30 kg dry
Launch date (UTC)
2023-04-15 (3 years ago)
Launch vehicle
FALCON 9
Launch site
Air Force Western Test Range (AFWTR)
Object type
Payload
Rocket body
Debris
Shape & HBR
Box + 2 Pan, 1.0 m
Radar Cross Section
0.240 m², Medium (>0.1 m² and < 1m²)

Expand to show TLE details & history
Last TLE update: 2 days ago

TLE from 2 days ago
0 HAWK-7A
1 56191U 23054P   25308.90973089  .00009095  00000-0  31672-3 0  9994
2 56191  97.2953 196.3846 0007255 141.7229 218.4528 15.29870489142786
Epoch: 2025-11-04T21:50Z
TLE epoch observation values (Epoch: 2025-11-04T21:50:00.748Z)
Latitude
-0.00005°
Longitude
-175.5085°
Altitude
483.203 km
Speed
7.622 km/s
True Right ascension
13h 05m 32s
True Declination
0° 00' 00"
Sunlit
Object was in daylight at epoch
Visualization orbit readout
Latitude
Unknown
Longitude
Unknown
Altitude
Unknown
Speed
Unknown
Apparent Right ascension
Unknown
Apparent Declination
Unknown
Sunlit
N/A
Visualization observer readout
Local Sidereal Time
14:13:16
Azimuth
Unknown
Elevation
Unknown
Doppler factor
Unknown
Orbital elements
Apogee altitude
478.118 km
Perigee altitude
468.176 km
Semi-major axis
6,851.284 km
Eccentricity
0.00073
Inclination
97.2953°
RAAN
196.3846°
Arg. of periapsis
141.7229°
True anomaly
218.40114°
Mean anomaly
218.4528°
Eccentric anomaly
218.42696°
Mean motion
3.82724 °/min
Orbital period
94.06 mins
BSTAR
0.00031672
Loading maneuver chart data...
Computing Atmospheric mass density...
Loading historical data...
Loading historical data...
Loading historical data...
Loading historical data...
Loading historical data...
Loading historical data...
Loading historical data...

Documentation

Showing up to 5 results
|